Temperature
16 17 17 18 15 13 15 15 17 17 17 17 17 17 15 15 16 15 14 14 14 14 14 14 14 14 14 14 14 14 14 14 14 14 14 14 14 14 14 14 14 14 14 14 14 14 14 14 14
16 17 17 17 13 14 15 15 16 17 17 18 17 16 15 14 14 14 14 14 14 14 14 14 14 14 14 14 14 14 14 14 14 14 14 14 14 14 14 14 14 14 14 14 14 14 14 14 14
16 17 17 13 13 14 15 16 16 17 18 18 16 15 15 14 14 14 14 14 14 14 14 14 14 14 14 14 14 14 14 14 14 14 14 14 14 14 14 14 14 14 14 14 14 14 14 14 14
16 16 16 13 14 14 15 16 16 16 17 17 16 14 14 14 14 14 14 14 14 14 14 14 14 14 14 14 13 14 14 14 13 13 13 14 14 14 14 14 14 14 14 14 14 14 13 13 13
16 16 13 13 14 14 15 16 16 16 16 16 15 13 13 14 14 14 14 14 14 14 13 14 14 14 14 14 13 13 13 13 13 13 13 13 13 13 13 14 14 14 14 14 13 13 13 13 13
16 13 12 13 14 15 15 16 16 15 15 15 14 13 13 13 13 13 13 13 13 13 13 13 13 13 13 13 13 13 13 13 13 13 13 13 13 13 13 13 13 13 13 13 13 13 13 13 13
14 11 12 13 13 14 15 16 15 14 14 14 15 12 12 13 13 13 13 13 13 13 13 13 13 13 13 13 13 13 13 13 13 13 13 13 13 13 13 13 13 13 13 13 13 13 13 13 12
15 11 13 13 13 14 15 16 15 15 14 15 15 12 12 12 13 13 13 12 12 13 13 13 12 12 13 13 13 13 13 13 13 13 13 13 13 13 13 13 13 13 13 13 13 12 12 12 12
15 11 12 13 13 14 14 14 15 15 15 14 14 14 13 13 13 12 12 12 12 12 12 12 12 12 12 12 12 12 12 12 12 12 12 12 12 12 12 12 12 12 12 12 12 12 12 12 12
13 10 12 13 13 13 14 14 14 14 13 13 13 13 13 13 12 12 12 12 12 12 12 12 12 12 12 12 12 12 12 12 12 12 12 12 12 12 12 12 12 12 12 12 12 12 12 12 12
12 11 12 13 14 14 13 13 14 13 12 12 13 13 12 12 12 12 12 12 12 12 12 12 12 12 12 12 12 12 12 12 12 12 12 12 12 12 12 12 12 12 12 12 12 12 12 11 11
12 12 13 13 13 13 13 13 13 13 13 14 13 13 12 12 12 12 12 12 12 12 11 11 11 11 11 11 11 11 11 11 11 11 11 11 11 11 12 12 12 11 11 11 11 11 11 11 11
11 11 12 13 13 13 13 12 12 12 13 13 13 12 12 12 12 12 11 11 11 11 11 11 11 11 11 11 11 11 11 11 11 11 11 11 11 11 11 11 11 11 11 11 11 11 10 10 10
11 11 12 12 12 12 11 11 11 12 13 12 12 12 12 12 12 11 11 11 11 11 11 11 11 10 10 10 10 10 10 10 10 10 10 10 10 10 11 11 11 11 11 10 10 10 10 10 10
11 10 10 11 11 11 11 10 10 12 12 12 12 11 11 11 11 11 11 11 11 11 11 11 10 10 10 10 10 10 10 10 10 10 10 10 10 10 10 10 10 10 10 10 10 10 9 9 9
10 9 9 10 11 11 11 10 10 12 12 11 11 11 11 11 11 11 11 11 11 11 10 10 10 10 10 10 9 9 9 9 9 9 9 9 9 9 9 9 9 9 9 9 9 9 9 9 9
9 8 9 10 10 10 10 9 10 11 11 10 10 10 10 10 10 10 11 11 10 10 10 10 10 9 9 9 9 9 9 9 9 9 9 9 9 9 9 9 9 9 9 9 9 9 9 9 8
8 8 8 9 9 9 9 8 9 11 10 10 10 10 10 10 10 10 10 10 10 10 10 9 9 9 9 9 8 8 8 8 8 8 8 8 8 8 8 8 8 8 8 8 8 8 8 8 8
9 8 8 8 9 9 8 8 8 9 9 8 9 9 9 10 10 10 9 9 9 9 9 9 9 8 8 8 8 8 8 8 8 8 8 8 8 8 8 8 8 8 8 8 8 8 8 8 7
8 8 7 8 8 8 7 7 8 8 8 9 8 9 9 9 9 9 9 9 9 9 9 9 8 8 8 8 8 8 8 7 7 7 7 7 7 7 7 7 7 7 7 7 7 7 7 7 7
8 7 7 7 7 7 7 7 7 7 8 8 9 9 9 9 9 9 9 9 9 9 8 8 8 8 8 7 7 7 7 7 7 7 7 7 7 7 7 7 7 7 7 7 7 7 7 7 7
7 7 7 7 6 5 6 6 6 6 7 7 8 8 8 9 9 9 9 9 8 8 8 8 8 8 7 7 7 7 7 7 7 7 7 6 6 6 6 6 6 6 6 6 6 6 6 6 6
7 7 6 6 6 5 5 5 5 6 6 7 7 8 8 8 8 9 9 8 8 8 8 8 7 7 7 7 6 6 6 6 6 6 6 6 6 6 6 6 6 6 6 6 6 6 6 6 6
6 6 5 4 4 4 5 5 5 5 6 7 7 8 8 8 8 8 8 8 8 8 7 7 7 7 7 6 6 6 6 6 6 6 6 6 6 6 5 5 5 5 5 5 5 5 5 5 5
5 4 4 4 3 4 4 5 5 6 6 6 6 7 8 8 8 8 8 8 7 7 7 7 7 7 6 6 6 6 5 5 5 5 5 5 5 5 5 5 5 5 5 5 5 5 5 5 5
5 4 4 5 4 4 4 4 5 6 6 7 7 7 7 7 7 7 7 7 7 7 6 6 6 6 6 6 5 5 5 5 5 5 5 5 5 5 5 5 5 4 4 4 4 4 4 4 4
4 4 4 3 2 3 3 4 5 5 5 5 5 6 6 6 6 7 7 7 7 6 6 6 6 6 5 5 5 5 5 5 5 5 4 4 4 4 4 4 4 4 4 4 4 4 4 4 4
4 3 2 3 3 4 4 4 4 4 4 4 4 4 5 6 6 6 6 6 6 6 6 5 5 5 5 5 5 5 4 4 4 4 4 4 4 4 4 3 3 3 3 3 3 3 3 3 3
4 3 3 2 2 3 4 4 4 4 4 3 3 4 5 5 5 5 6 6 5 5 5 5 5 5 5 5 4 4 4 4 4 4 4 3 3 3 3 3 3 3 3 3 3 3 3 3 3
3 3 2 2 2 2 2 3 4 4 3 3 4 4 5 5 5 5 5 5 5 5 5 4 4 4 4 4 4 4 4 4 4 3 3 3 3 3 3 3 2 2 2 2 2 2 2 2 2
Wind_Speed
9 7 3 4 5 4 1 4 2 1 2 1 3 8 8 5 3 4 2 5 8 8 10 11 11 12 12 12 12 12 12 11 10 10 10 10 10 10 10 10 10 10 10 10 10 10 10 11 11
5 3 5 5 5 2 3 4 2 2 3 3 4 6 6 5 3 6 3 6 10 10 10 10 11 12 12 12 12 11 12 11 11 11 10 10 10 10 10 10 10 10 9 9 10 10 10 10 11
4 2 4 4 4 5 4 3 3 0 1 3 4 5 5 4 3 4 4 9 10 9 10 10 11 11 11 11 11 11 11 11 10 10 10 10 9 9 9 9 10 9 9 9 9 9 9 10 9
3 4 4 4 3 3 4 3 3 2 3 4 5 5 3 2 2 5 8 10 10 8 10 10 11 11 11 11 11 11 10 10 10 10 9 9 9 9 9 9 9 9 9 9 8 9 9 9 9
4 4 3 1 3 3 3 3 1 3 2 3 5 5 3 4 5 9 9 9 10 7 9 9 10 10 10 10 10 9 9 9 9 9 9 9 8 8 9 8 8 8 8 8 8 8 8 8 8
4 4 4 3 3 3 2 1 2 3 2 3 5 5 2 2 6 8 8 8 8 7 8 8 9 10 10 10 9 9 8 8 8 8 9 8 8 8 8 8 7 7 7 8 8 8 8 7 8
4 4 4 4 3 3 2 1 3 3 3 1 4 5 2 1 4 7 8 8 7 8 7 7 8 8 8 9 9 8 8 8 8 8 8 8 8 8 8 7 7 7 7 7 7 7 7 7 7
4 4 3 2 4 3 1 1 1 3 2 1 4 7 5 4 5 7 8 7 6 6 6 6 7 7 6 7 8 8 7 7 8 8 8 7 7 7 7 7 6 7 7 7 6 7 7 7 7
4 3 3 4 4 3 0 1 2 2 4 3 3 3 5 8 7 8 7 5 5 5 4 5 5 6 6 6 6 7 7 7 7 7 7 7 7 6 6 6 6 6 6 6 6 6 7 7 7
4 4 5 3 4 3 1 2 1 3 3 3 4 4 6 8 8 8 7 6 5 4 3 3 4 5 6 5 5 5 5 6 6 5 5 6 6 5 5 5 6 6 6 5 5 6 6 6 6
3 4 2 1 2 2 2 1 1 4 1 4 6 7 7 7 7 7 6 6 5 5 4 3 4 5 5 4 5 4 4 4 4 4 5 5 5 4 5 4 5 5 5 5 5 5 5 5 4
2 1 1 1 1 1 1 1 1 2 5 5 8 11 9 8 7 7 7 6 5 5 4 3 4 4 4 4 4 3 3 3 3 3 3 4 4 3 3 3 3 3 3 4 4 3 4 4 4
1 1 1 1 1 1 1 1 1 4 4 4 6 8 9 9 7 5 5 6 6 5 4 4 4 4 4 4 3 3 2 3 3 2 2 3 3 3 3 2 3 3 3 3 3 3 3 4 4
2 1 1 2 1 1 1 2 1 5 3 4 7 7 8 8 8 5 5 5 5 6 6 5 5 4 4 3 2 2 2 2 2 2 2 3 3 3 3 2 2 2 2 3 3 3 3 3 3
2 1 3 2 2 2 2 3 5 5 3 5 6 7 6 6 6 7 7 7 7 6 5 5 5 4 4 3 3 3 2 2 2 2 2 2 3 3 3 2 2 1 2 3 3 3 3 2 2
2 1 2 4 2 2 4 8 7 4 4 6 6 6 5 5 5 5 5 5 5 5 5 5 4 4 4 3 3 3 3 3 2 2 2 2 2 3 3 2 2 1 2 3 2 2 1 1 1
1 3 5 4 3 3 5 7 6 3 5 6 5 5 5 4 3 4 4 5 5 5 6 5 4 5 4 4 3 3 3 2 2 2 2 2 2 3 3 2 2 2 2 2 2 1 1 1 1
6 5 5 6 3 3 5 8 7 5 5 6 6 5 5 6 6 4 4 4 4 4 5 5 5 5 4 3 2 2 2 1 2 2 2 3 3 3 3 2 2 3 2 1 1 1 1 0 1
3 3 5 5 3 3 7 9 9 7 5 6 6 6 6 6 5 3 3 3 3 3 4 5 4 4 4 3 3 2 2 2 1 1 2 3 3 3 3 2 2 3 2 1 1 1 1 1 0
3 3 3 3 2 2 5 9 7 6 6 7 8 8 7 5 3 3 3 3 4 4 4 4 5 4 4 4 3 2 2 2 2 2 2 3 3 3 3 3 3 2 2 1 1 1 1 0 0
4 5 5 4 3 3 3 7 5 5 4 3 4 5 6 7 7 5 4 4 4 4 5 4 5 4 4 3 2 1 1 1 0 1 2 2 3 3 3 4 4 3 3 3 2 2 2 1 1
5 4 4 3 0 4 1 5 7 5 5 5 6 5 6 6 6 6 6 6 6 6 5 5 5 4 4 4 4 5 3 3 4 3 2 2 3 4 3 4 4 4 3 3 3 2 1 2 2
4 1 1 2 2 2 2 4 8 3 6 8 8 7 7 6 6 6 7 7 6 5 5 4 4 4 4 4 5 5 4 3 2 2 2 2 2 3 4 4 3 3 3 3 3 2 2 2 2
2 4 4 4 2 4 6 6 7 5 8 7 7 7 7 7 6 5 4 4 4 3 4 4 4 4 4 5 5 6 6 4 3 3 4 3 2 2 3 4 3 3 3 4 3 3 3 2 2
3 4 2 2 2 7 4 5 9 6 6 7 7 6 5 5 5 4 4 4 4 4 4 4 4 4 4 5 6 6 6 6 6 6 5 4 3 3 4 4 3 3 4 4 4 3 3 3 3
3 5 6 5 5 4 2 7 7 4 3 3 3 3 2 3 3 4 5 5 5 5 5 5 5 5 5 5 5 5 5 5 5 5 5 5 4 4 4 4 4 4 4 4 4 3 3 3 3
4 4 4 4 1 2 5 6 6 1 2 1 1 1 1 1 2 3 3 4 5 5 6 6 5 5 5 5 5 5 5 5 5 5 4 4 4 3 4 4 4 3 3 4 4 3 3 3 4
4 5 3 3 3 4 5 5 5 4 3 2 1 1 2 2 2 2 2 3 4 5 5 4 5 5 5 5 5 5 5 5 5 4 4 4 4 3 4 4 4 4 4 4 4 4 3 4 4
3 3 3 3 3 3 4 6 4 5 4 4 3 3 3 3 2 3 3 3 3 3 4 4 4 4 4 4 4 4 4 4 4 4 5 4 4 4 5 5 5 4 4 4 4 4 4 4 4
4 4 6 5 4 3 3 6 4 3 3 3 3 3 3 3 2 3 3 3 2 2 2 3 4 4 4 4 4 4 4 3 4 4 4 4 4 4 4 4 5 5 5 5 5 5 5 5 5
Wind_Direction
336 345 60 58 59 57 257 267 254 6 40 25 82 98 103 99 120 143 157 136 125 125 126 123 119 113 107 104 100 97 97 98 96 95 94 95 94 90 90 89 87 86 85 83 82 81 83 81 78
339 9 56 62 95 121 266 267 232 224 175 133 70 78 80 71 78 110 124 134 124 121 122 123 120 116 112 107 102 97 96 95 95 94 92 93 94 92 89 89 87 87 86 84 83 82 84 82 79
339 55 81 82 125 177 207 246 204 156 83 86 63 53 84 100 110 131 148 134 117 113 118 123 122 119 115 110 106 101 98 95 94 92 90 88 90 93 90 88 86 86 83 82 83 84 86 84 80
56 50 60 90 183 213 196 223 188 113 41 54 93 66 54 32 136 136 130 124 116 110 116 122 124 123 118 115 110 104 100 96 92 91 88 88 89 90 90 89 89 87 86 83 84 86 88 85 83
64 82 82 117 216 232 221 227 188 107 71 55 92 95 61 358 87 113 122 120 122 114 118 124 122 121 118 117 114 109 106 100 94 91 89 84 85 88 89 88 89 89 90 88 88 92 87 82 84
65 78 115 191 212 244 263 253 119 84 80 75 92 104 106 62 98 113 116 115 115 118 119 122 121 119 118 115 113 112 110 104 99 95 90 85 82 87 90 86 85 88 90 92 93 95 90 82 82
113 114 164 181 188 232 248 124 122 124 86 78 120 109 128 53 116 119 112 107 101 106 108 107 112 115 116 116 111 111 112 106 99 96 92 87 83 82 86 87 90 89 92 92 92 95 96 88 82
129 119 154 182 181 220 295 79 121 126 129 101 110 134 170 187 133 112 102 98 98 93 96 96 100 104 106 111 109 105 104 103 98 93 89 86 84 81 83 83 87 88 87 89 91 91 96 90 82
98 100 192 198 183 207 260 87 359 34 93 68 69 148 163 144 121 108 103 95 100 100 94 98 98 95 97 104 106 104 100 97 96 95 91 85 81 80 81 82 82 83 87 89 90 91 89 84 78
98 168 212 210 178 171 142 119 143 69 62 68 53 66 110 126 126 130 139 140 136 133 120 101 103 100 97 101 98 94 95 95 95 94 93 95 92 87 87 84 81 81 85 85 89 88 80 74 66
134 181 202 222 155 147 128 37 36 130 187 189 164 149 138 132 136 145 154 156 159 157 140 122 113 110 104 103 102 97 100 98 102 100 97 103 98 93 88 82 76 79 80 81 82 80 76 76 72
150 248 191 222 100 121 166 171 6 194 212 188 165 157 153 153 162 169 169 169 162 154 155 148 129 120 113 114 112 105 100 103 103 108 112 114 107 101 96 94 93 88 88 87 85 80 78 82 86
206 248 306 287 61 138 127 169 202 239 224 168 150 153 161 167 173 178 175 173 162 159 161 161 141 132 131 122 122 113 112 119 117 115 129 132 126 133 119 109 104 102 97 97 97 93 91 90 87
184 211 290 275 244 244 186 264 217 245 188 152 156 171 177 176 175 172 175 178 173 169 170 167 159 145 136 131 126 129 133 130 126 134 145 147 138 136 138 130 115 111 118 112 109 106 100 95 94
117 32 325 264 209 205 124 289 226 225 163 171 178 182 187 189 181 184 187 184 180 174 166 166 164 152 147 145 146 136 138 130 131 146 157 148 144 145 137 137 137 135 127 117 104 98 95 90 84
70 79 268 267 190 180 154 250 249 212 174 193 198 194 193 194 189 189 180 179 177 171 166 169 166 162 158 154 154 144 138 133 136 152 154 148 151 145 134 136 150 141 118 112 117 114 113 110 104
118 214 234 264 210 170 189 244 255 225 201 206 204 199 193 193 203 198 181 174 170 170 168 168 167 168 169 157 151 145 142 147 148 143 148 158 158 153 137 144 144 138 117 121 130 115 140 142 139
212 218 226 232 240 195 224 250 265 257 217 211 206 203 198 196 207 195 176 170 164 165 165 164 169 171 164 150 140 135 132 136 147 155 167 170 168 165 149 140 137 128 118 102 123 120 78 135 176
185 192 228 241 241 216 235 255 263 261 222 216 216 210 208 212 210 182 166 157 149 154 159 166 166 174 164 164 171 177 196 213 217 189 189 177 172 171 160 153 150 144 144 176 163 132 93 27 32
203 215 240 276 279 242 255 265 265 249 226 216 212 211 209 207 203 191 174 165 171 177 177 172 177 181 183 189 193 191 191 208 213 210 203 191 175 179 179 165 169 167 165 164 173 154 147 18 37
235 215 222 238 329 339 321 292 259 258 242 237 225 214 206 200 199 196 188 189 189 190 194 193 188 188 191 186 166 140 102 74 231 242 236 213 191 184 186 181 174 172 176 188 191 183 171 190 279
244 231 204 201 193 272 189 276 269 247 253 243 232 215 209 207 199 196 195 199 202 205 199 195 194 192 195 185 181 178 189 211 227 227 230 232 201 191 192 188 180 179 178 188 197 191 199 178 206
220 174 155 190 195 278 237 226 277 239 240 242 232 222 212 208 201 201 202 204 207 203 198 197 196 202 201 193 192 194 206 219 227 221 217 233 222 202 195 188 183 183 179 186 189 195 194 192 197
122 56 44 48 84 253 221 200 268 230 223 231 234 228 218 211 210 209 205 199 209 202 195 194 196 210 205 198 197 200 206 208 208 220 218 226 235 222 204 191 187 193 187 190 193 197 192 201 203
89 98 41 338 296 246 208 209 250 244 226 215 216 218 216 206 202 207 207 205 209 205 205 203 200 218 216 205 206 210 212 209 210 216 215 219 230 236 229 206 196 201 195 188 185 197 205 205 205
191 154 170 207 226 268 238 228 254 264 260 236 206 192 187 203 209 212 214 212 213 213 210 209 212 221 219 214 220 221 218 216 221 218 217 218 226 229 221 204 199 203 201 193 185 199 215 211 216
155 198 181 154 195 250 254 272 299 304 356 21 88 91 136 230 241 241 242 232 223 218 216 213 215 223 223 219 218 227 223 220 222 221 220 225 229 226 207 199 204 204 203 201 191 211 220 216 222
159 153 117 149 187 246 261 257 251 250 256 270 249 258 278 301 309 304 282 258 239 228 225 220 219 221 223 217 214 222 223 223 217 210 218 223 228 223 215 213 211 211 211 211 203 217 221 220 231
144 154 154 162 187 192 248 262 231 225 217 218 243 250 258 277 292 297 294 286 265 239 222 225 229 227 224 219 216 216 222 221 211 213 218 218 217 214 218 215 215 215 216 212 212 219 217 225 237
184 183 161 174 224 204 223 266 270 227 207 206 250 273 274 273 278 282 292 305 300 272 237 230 234 229 225 220 214 217 218 214 214 222 225 215 215 219 220 215 213 213 217 216 213 219 221 224 234
Height
1516 1516 1517 1519 1523 1534 1535 1529 1522 1520 1519 1519 1518 1519 1522 1526 1530 1537 1534 1533 1535 1536 1537 1538 1539 1539 1540 1540 1540 1540 1540 1540 1540 1540 1540 1540 1540 1540 1540 1539 1539 1539 1539 1538 1538 1537 1537 1537 1537
1515 1516 1519 1519 1529 1540 1536 1526 1522 1519 1519 1519 1519 1521 1522 1526 1528 1530 1531 1533 1535 1536 1537 1538 1539 1539 1540 1540 1540 1540 1540 1540 1541 1541 1541 1541 1541 1540 1540 1540 1540 1539 1539 1539 1538 1538 1537 1537 1537
1515 1516 1519 1522 1531 1536 1530 1522 1520 1518 1518 1519 1521 1523 1525 1528 1529 1530 1532 1533 1535 1536 1537 1538 1539 1539 1540 1540 1540 1540 1540 1540 1541 1541 1541 1541 1541 1541 1540 1540 1540 1539 1539 1538 1538 1538 1538 1537 1537
1516 1518 1519 1526 1529 1527 1523 1520 1519 1518 1519 1519 1521 1525 1527 1530 1530 1531 1532 1534 1535 1536 1537 1538 1538 1539 1539 1540 1540 1540 1540 1540 1540 1541 1541 1541 1540 1540 1540 1540 1540 1539 1539 1538 1538 1538 1538 1537 1537
1515 1517 1523 1529 1526 1523 1520 1519 1518 1518 1519 1521 1522 1526 1529 1531 1531 1532 1532 1534 1535 1536 1537 1538 1538 1539 1539 1539 1540 1540 1540 1540 1540 1540 1540 1540 1540 1540 1540 1540 1539 1539 1539 1538 1538 1538 1538 1537 1537
1515 1517 1529 1531 1526 1521 1519 1518 1518 1519 1520 1522 1523 1526 1529 1531 1531 1532 1533 1534 1535 1536 1537 1537 1538 1538 1539 1539 1539 1540 1540 1540 1540 1540 1540 1540 1540 1540 1539 1539 1539 1539 1538 1538 1538 1538 1538 1537 1537
1515 1520 1525 1525 1525 1522 1519 1518 1519 1519 1520 1522 1523 1526 1529 1531 1531 1532 1533 1534 1535 1536 1536 1537 1537 1538 1538 1538 1539 1539 1539 1539 1539 1539 1540 1540 1539 1539 1539 1539 1539 1538 1538 1538 1538 1537 1537 1537 1537
1514 1519 1522 1525 1524 1522 1519 1519 1519 1519 1521 1523 1523 1525 1528 1529 1530 1532 1533 1534 1535 1535 1536 1536 1536 1537 1537 1538 1538 1538 1539 1539 1539 1539 1539 1539 1539 1539 1538 1538 1538 1538 1538 1537 1537 1537 1537 1537 1536
1514 1522 1524 1522 1521 1520 1518 1518 1519 1520 1520 1521 1522 1524 1525 1528 1529 1530 1532 1533 1534 1534 1535 1535 1535 1536 1536 1537 1537 1538 1538 1538 1538 1538 1538 1538 1538 1538 1538 1537 1537 1537 1537 1537 1536 1536 1536 1536 1535
1513 1522 1518 1516 1516 1517 1517 1518 1519 1520 1520 1521 1522 1523 1525 1526 1527 1528 1529 1530 1531 1532 1533 1533 1534 1534 1535 1535 1536 1536 1537 1537 1537 1537 1537 1537 1537 1537 1537 1537 1536 1536 1536 1536 1536 1535 1535 1535 1535
1513 1517 1515 1515 1515 1515 1516 1518 1518 1519 1521 1521 1521 1521 1523 1524 1526 1526 1527 1528 1529 1530 1531 1531 1532 1533 1533 1534 1534 1535 1535 1535 1536 1536 1536 1536 1536 1536 1536 1535 1535 1535 1535 1535 1534 1534 1534 1534 1534
1513 1514 1514 1514 1514 1515 1516 1517 1518 1518 1518 1519 1520 1520 1521 1522 1523 1524 1525 1526 1528 1528 1529 1530 1530 1531 1531 1532 1533 1533 1533 1533 1534 1534 1534 1534 1534 1534 1534 1534 1534 1534 1534 1533 1533 1533 1532 1532 1533
1513 1514 1514 1514 1514 1514 1515 1516 1516 1516 1517 1518 1519 1519 1519 1520 1522 1523 1524 1525 1526 1526 1527 1528 1529 1529 1530 1530 1531 1531 1531 1532 1532 1532 1532 1532 1532 1532 1532 1532 1532 1532 1532 1532 1532 1531 1531 1531 1531
1513 1513 1513 1513 1513 1514 1515 1515 1516 1514 1515 1516 1517 1517 1518 1518 1519 1521 1522 1522 1523 1524 1525 1526 1526 1527 1528 1528 1528 1529 1529 1529 1530 1530 1530 1530 1531 1530 1530 1530 1530 1530 1530 1530 1530 1530 1530 1529 1529
1513 1515 1514 1513 1513 1513 1515 1515 1513 1512 1514 1514 1515 1515 1516 1517 1518 1518 1519 1520 1521 1522 1523 1523 1524 1525 1526 1526 1526 1527 1527 1527 1527 1528 1528 1528 1528 1528 1528 1528 1528 1528 1528 1528 1528 1528 1528 1528 1528
1514 1517 1519 1513 1512 1513 1518 1517 1511 1511 1512 1512 1513 1513 1514 1514 1515 1516 1517 1518 1519 1520 1521 1521 1522 1522 1523 1524 1524 1524 1525 1525 1525 1525 1526 1526 1526 1526 1526 1526 1526 1526 1526 1526 1526 1525 1526 1526 1526
1517 1521 1519 1515 1511 1512 1515 1514 1508 1509 1509 1509 1510 1510 1511 1511 1512 1513 1514 1515 1516 1517 1518 1519 1519 1520 1520 1521 1521 1522 1522 1523 1523 1523 1523 1523 1524 1524 1524 1524 1524 1524 1523 1523 1523 1523 1524 1524 1524
1517 1518 1517 1516 1512 1512 1513 1511 1507 1506 1507 1507 1507 1507 1508 1508 1509 1510 1511 1513 1514 1514 1515 1516 1517 1517 1518 1518 1519 1519 1519 1520 1520 1520 1521 1521 1521 1521 1521 1521 1521 1521 1521 1521 1521 1521 1521 1522 1522
1511 1514 1515 1513 1510 1512 1511 1509 1506 1504 1504 1504 1504 1504 1505 1506 1507 1508 1509 1510 1511 1511 1512 1513 1513 1514 1515 1515 1515 1515 1516 1516 1517 1517 1518 1518 1518 1518 1518 1518 1518 1518 1518 1518 1518 1519 1519 1519 1519
1511 1514 1515 1513 1510 1511 1511 1508 1504 1501 1501 1500 1500 1500 1501 1502 1504 1505 1506 1507 1508 1508 1509 1509 1510 1511 1511 1512 1513 1513 1513 1513 1514 1514 1514 1514 1515 1515 1515 1515 1515 1515 1515 1515 1516 1516 1516 1516 1517
1510 1513 1513 1514 1511 1510 1511 1508 1504 1499 1499 1498 1498 1498 1498 1499 1500 1502 1503 1504 1505 1505 1506 1506 1507 1508 1508 1509 1510 1510 1510 1510 1510 1510 1511 1511 1511 1511 1511 1511 1512 1512 1512 1512 1512 1513 1513 1513 1514
1511 1509 1510 1512 1516 1519 1516 1518 1504 1499 1498 1496 1495 1495 1495 1497 1498 1499 1500 1501 1501 1502 1503 1503 1504 1504 1505 1505 1505 1505 1505 1505 1505 1506 1507 1507 1507 1507 1507 1508 1508 1508 1508 1509 1509 1510 1510 1511 1511
1508 1508 1510 1512 1516 1521 1518 1520 1506 1499 1497 1493 1492 1492 1492 1494 1495 1495 1496 1497 1498 1499 1499 1500 1500 1501 1501 1501 1501 1502 1502 1502 1503 1503 1503 1503 1504 1504 1503 1504 1504 1504 1504 1505 1506 1506 1507 1507 1508
1507 1510 1513 1518 1521 1524 1516 1518 1505 1499 1492 1489 1489 1489 1489 1490 1492 1493 1494 1494 1495 1495 1496 1496 1496 1497 1497 1497 1497 1498 1498 1498 1498 1499 1499 1499 1499 1499 1499 1500 1500 1500 1501 1501 1502 1503 1503 1504 1504
1508 1516 1525 1525 1529 1520 1511 1511 1500 1489 1486 1485 1485 1485 1486 1487 1489 1490 1490 1491 1491 1492 1492 1492 1492 1492 1493 1493 1493 1494 1494 1494 1494 1495 1495 1495 1495 1495 1495 1495 1495 1496 1496 1497 1498 1499 1499 1500 1501
1509 1512 1521 1523 1523 1517 1510 1508 1494 1486 1483 1483 1483 1483 1484 1485 1486 1487 1488 1488 1488 1488 1488 1488 1488 1488 1488 1489 1489 1489 1490 1490 1490 1491 1491 1491 1491 1491 1491 1491 1492 1492 1492 1493 1494 1495 1495 1496 1497
1508 1512 1512 1520 1523 1522 1511 1502 1490 1484 1484 1483 1482 1483 1483 1484 1484 1485 1485 1485 1485 1485 1485 1485 1485 1485 1485 1485 1485 1485 1486 1486 1486 1486 1487 1487 1487 1487 1487 1487 1488 1488 1488 1489 1489 1490 1491 1492 1493
1505 1508 1516 1518 1518 1513 1505 1502 1495 1487 1485 1484 1483 1482 1482 1482 1482 1482 1482 1482 1482 1482 1482 1482 1481 1481 1481 1481 1481 1481 1482 1482 1482 1482 1482 1482 1482 1483 1483 1483 1483 1484 1484 1485 1485 1486 1487 1488 1489
1506 1509 1511 1516 1516 1513 1510 1500 1486 1484 1483 1483 1482 1482 1481 1480 1480 1480 1479 1479 1479 1478 1478 1478 1478 1478 1478 1478 1478 1477 1477 1477 1478 1478 1478 1478 1478 1478 1478 1478 1479 1479 1480 1481 1481 1482 1483 1484 1484
1503 1504 1508 1514 1515 1514 1510 1499 1481 1480 1480 1481 1481 1481 1480 1480 1479 1478 1477 1476 1475 1475 1475 1474 1474 1474 1474 1474 1474 1474 1474 1474 1473 1473 1473 1474 1473 1474 1474 1474 1475 1475 1475 1476 1477 1478 1478 1479 1480